Weather History for Buckhannon, WV

Change the Weather History Date:

Sunday, December 1, 2013

  Actual Average (KEKN) Record (KEKN)
Temperature  
Mean Temperature 38 °F 37 °F  
Max Temperature 44 °F 47 °F 71 °F (2006)
Min Temperature 32 °F 27 °F -8 °F (1929)
Degree Days  
Heating Degree Days 27 28  
Month to date heating degree days 28  
Since 1 July heating degree days 1312  
Cooling Degree Days 0 0  
Month to date cooling degree days 0  
Year to date cooling degree days 475  
Moisture  
Dew Point 27 °F    
Average Humidity 60    
Maximum Humidity 80    
Minimum Humidity 49    
Precipitation  
Precipitation 0.00 in 0.11 in 1.16 in (1996)
Month to date precipitation 0.11  
Year to date precipitation 42.78  
Snow  
Snow 0.00 in - - ()
Month to date snowfall  
Since 1 September snowfall  
Snow Depth -    
Sea Level Pressure  
Sea Level Pressure 30.11 in    
Wind  
Wind Speed 4 mph (SSW)    
Max Wind Speed 13 mph    
Max Gust Speed 18 mph    
Visibility 10 miles    
Events      
T = Trace of Precipitation, MM = Missing Value Source: NWS Daily Summary

Daily Weather History Graph

Daily Weather History Graph

Search for Another Location

Airport:

Trip Planner

Search our weather history database for the weather conditions in past years. The results will help you decide how hot, cold, wet, or windy it might be!

Date:

Astronomy

Dec. 01, 2013 Rise Set
Actual Time 7:21 AM EST 4:59 PM EST
Civil Twilight 6:51 AM EST 5:28 PM EST
Nautical Twilight 6:18 AM EST 6:01 PM EST
Astronomical Twilight 5:46 AM EST 6:33 PM EST
Moon 5:38 AM EST (12/1) 4:07 PM EST (12/1)
Length of Visible Light 10h 36m
Length of Day
9h 37m
Waning Crescent, 2% of the Moon is Illuminated
Dec 1
Waning Crescent
Dec 2
New
Dec 9
First Quarter
Dec 17
Full
Dec 25
Last Quarter

Hourly Weather History & Observations

Time (EST) Temp. Windchill Dew Point Humidity Pressure Visibility Wind Dir Wind Speed Gust Speed Precip Events Conditions
12:15 AM 33.8 °F - 24.8 °F 70% 30.23 in 10.0 mi Calm Calm - N/A   Clear
12:35 AM 33.8 °F - 24.8 °F 70% 30.22 in 10.0 mi Calm Calm - N/A   Partly Cloudy
12:55 AM 33.8 °F - 26.6 °F 75% 30.22 in 10.0 mi Calm Calm - N/A   Partly Cloudy
1:15 AM 32.0 °F - 26.6 °F 80% 30.21 in 10.0 mi Calm Calm - N/A   Partly Cloudy
1:35 AM 32.0 °F - 26.6 °F 80% 30.21 in 10.0 mi Calm Calm - N/A   Clear
1:55 AM 33.8 °F - 24.8 °F 70% 30.21 in 10.0 mi Calm Calm - N/A   Clear
2:15 AM 33.8 °F - 24.8 °F 70% 30.21 in 10.0 mi Calm Calm - N/A   Clear
2:35 AM 35.6 °F - 23.0 °F 60% 30.21 in 10.0 mi Calm Calm - N/A   Scattered Clouds
2:55 AM 35.6 °F - 23.0 °F 60% 30.21 in 10.0 mi Calm Calm - N/A   Partly Cloudy
3:15 AM 33.8 °F - 23.0 °F 65% 30.21 in 10.0 mi Calm Calm - N/A   Clear
3:35 AM 33.8 °F - 23.0 °F 65% 30.20 in 10.0 mi Calm Calm - N/A   Partly Cloudy
3:55 AM 35.6 °F 32.8 °F 23.0 °F 60% 30.20 in 10.0 mi SSW 3.5 mph - N/A   Scattered Clouds
4:15 AM 35.6 °F 30.7 °F 21.2 °F 56% 30.19 in 10.0 mi SSW 5.8 mph - N/A   Mostly Cloudy
4:35 AM 35.6 °F - 23.0 °F 60% 30.19 in 10.0 mi Calm Calm - N/A   Overcast
4:55 AM 35.6 °F 30.7 °F 21.2 °F 56% 30.19 in 10.0 mi SSW 5.8 mph - N/A   Overcast
5:15 AM 35.6 °F 32.8 °F 21.2 °F 56% 30.18 in 10.0 mi SSW 3.5 mph - N/A   Mostly Cloudy
5:35 AM 35.6 °F 30.7 °F 21.2 °F 56% 30.18 in 10.0 mi SSW 5.8 mph - N/A   Mostly Cloudy
5:55 AM 37.4 °F - 21.2 °F 52% 30.18 in 10.0 mi Calm Calm - N/A   Overcast
6:15 AM 37.4 °F 32.8 °F 21.2 °F 52% 30.18 in 10.0 mi SSW 5.8 mph - N/A   Mostly Cloudy
6:35 AM 37.4 °F 32.8 °F 23.0 °F 56% 30.18 in 10.0 mi SSW 5.8 mph - N/A   Overcast
6:55 AM 37.4 °F 32.8 °F 23.0 °F 56% 30.18 in 10.0 mi SSW 5.8 mph - N/A   Overcast
7:15 AM 37.4 °F 32.8 °F 23.0 °F 56% 30.18 in 10.0 mi SSW 5.8 mph - N/A   Overcast
7:35 AM 37.4 °F 32.8 °F 23.0 °F 56% 30.18 in 10.0 mi SSW 5.8 mph - N/A   Mostly Cloudy
7:55 AM 37.4 °F 32.8 °F 23.0 °F 56% 30.18 in 10.0 mi SSW 5.8 mph - N/A   Mostly Cloudy
8:15 AM 39.2 °F 37.0 °F 23.0 °F 52% 30.18 in 10.0 mi SSW 3.5 mph - N/A   Mostly Cloudy
8:35 AM 39.2 °F 35.0 °F 23.0 °F 52% 30.17 in 10.0 mi South 5.8 mph - N/A   Mostly Cloudy
8:55 AM 41.0 °F 36.4 °F 24.8 °F 53% 30.17 in 10.0 mi SSW 6.9 mph - N/A   Mostly Cloudy
9:15 AM 42.8 °F 37.0 °F 24.8 °F 49% 30.17 in 10.0 mi SSW 10.4 mph - N/A   Scattered Clouds
9:35 AM 42.8 °F 39.3 °F 24.8 °F 49% 30.17 in 10.0 mi SSW 5.8 mph - N/A   Scattered Clouds
9:55 AM 42.8 °F 37.5 °F 24.8 °F 49% 30.17 in 10.0 mi SSW 9.2 mph - N/A   Mostly Cloudy
10:15 AM 42.8 °F 36.2 °F 24.8 °F 49% 30.17 in 10.0 mi SSW 12.7 mph - N/A   Mostly Cloudy
10:35 AM 44.6 °F 39.7 °F 26.6 °F 49% 30.17 in 10.0 mi SSW 9.2 mph - N/A   Mostly Cloudy
10:55 AM 44.6 °F 38.8 °F 26.6 °F 49% 30.17 in 10.0 mi SW 11.5 mph 18.4 mph N/A   Mostly Cloudy
11:15 AM 44.6 °F 38.8 °F 26.6 °F 49% 30.16 in 10.0 mi SW 11.5 mph - N/A   Mostly Cloudy
11:35 AM 44.6 °F 40.2 °F 26.6 °F 49% 30.15 in 10.0 mi SW 8.1 mph - N/A   Overcast
11:55 AM 44.6 °F 40.7 °F 26.6 °F 49% 30.14 in 10.0 mi SSW 6.9 mph - N/A   Overcast
12:15 PM 44.6 °F 40.2 °F 26.6 °F 49% 30.13 in 10.0 mi SW 8.1 mph - N/A   Overcast
12:35 PM 42.8 °F 36.6 °F 28.4 °F 57% 30.13 in 10.0 mi SW 11.5 mph 16.1 mph N/A   Overcast
12:55 PM 42.8 °F 37.0 °F 26.6 °F 53% 30.12 in 10.0 mi SW 10.4 mph 16.1 mph N/A   Overcast
1:15 PM 42.8 °F 37.5 °F 26.6 °F 53% 30.10 in 10.0 mi SW 9.2 mph - N/A   Mostly Cloudy
1:35 PM 44.6 °F 39.7 °F 26.6 °F 49% 30.09 in 10.0 mi SW 9.2 mph - N/A   Overcast
1:55 PM 44.6 °F 39.7 °F 26.6 °F 49% 30.08 in 10.0 mi SSW 9.2 mph - N/A   Mostly Cloudy
2:15 PM 44.6 °F 39.7 °F 28.4 °F 53% 30.07 in 10.0 mi SSW 9.2 mph - N/A   Overcast
2:35 PM 44.6 °F 40.2 °F 28.4 °F 53% 30.07 in 10.0 mi SW 8.1 mph - N/A   Overcast
2:55 PM 42.8 °F 38.0 °F 30.2 °F 61% 30.07 in 10.0 mi SW 8.1 mph - N/A   Mostly Cloudy
3:15 PM 44.6 °F 41.4 °F 30.2 °F 57% 30.06 in 10.0 mi SSW 5.8 mph - N/A   Mostly Cloudy
3:35 PM 42.8 °F 38.6 °F 30.2 °F 61% 30.06 in 10.0 mi SSW 6.9 mph - N/A   Mostly Cloudy
3:55 PM 42.8 °F 37.5 °F 30.2 °F 61% 30.05 in 10.0 mi SSW 9.2 mph - N/A   Overcast
4:15 PM 42.8 °F 40.1 °F 30.2 °F 61% 30.05 in 10.0 mi South 4.6 mph - N/A   Mostly Cloudy
4:35 PM 42.8 °F 38.6 °F 30.2 °F 61% 30.05 in 10.0 mi SSW 6.9 mph - N/A   Mostly Cloudy
4:55 PM 42.8 °F 38.6 °F 30.2 °F 61% 30.04 in 10.0 mi South 6.9 mph - N/A   Mostly Cloudy
5:15 PM 42.8 °F 38.6 °F 32.0 °F 66% 30.04 in 10.0 mi South 6.9 mph - N/A   Mostly Cloudy
5:35 PM 42.8 °F 38.6 °F 32.0 °F 66% 30.03 in 10.0 mi South 6.9 mph - N/A   Overcast
5:55 PM 42.8 °F 39.3 °F 32.0 °F 66% 30.03 in 10.0 mi South 5.8 mph - N/A   Overcast
6:15 PM 42.8 °F 39.3 °F 32.0 °F 66% 30.03 in 10.0 mi South 5.8 mph - N/A   Overcast
6:35 PM 42.8 °F 39.3 °F 32.0 °F 66% 30.02 in 10.0 mi South 5.8 mph - N/A   Overcast
6:55 PM 42.8 °F 39.3 °F 32.0 °F 66% 30.02 in 10.0 mi South 5.8 mph - N/A   Overcast
7:15 PM 42.8 °F 39.3 °F 32.0 °F 66% 30.02 in 10.0 mi South 5.8 mph - N/A   Overcast
7:35 PM 42.8 °F 40.1 °F 32.0 °F 66% 30.02 in 10.0 mi South 4.6 mph - N/A   Overcast
7:55 PM 42.8 °F 40.1 °F 32.0 °F 66% 30.01 in 10.0 mi South 4.6 mph - N/A   Overcast
8:15 PM 42.8 °F 40.1 °F 32.0 °F 66% 30.01 in 10.0 mi SSW 4.6 mph - N/A   Overcast
8:35 PM 42.8 °F - 33.8 °F 70% 30.01 in 10.0 mi Calm Calm - N/A   Overcast
8:55 PM 42.8 °F - 33.8 °F 70% 30.01 in 10.0 mi Calm Calm - N/A   Overcast
9:15 PM 42.8 °F - 33.8 °F 70% 30.01 in 10.0 mi Calm Calm - N/A   Overcast
9:35 PM 42.8 °F - 32.0 °F 66% 30.00 in 10.0 mi Calm Calm - N/A   Overcast
9:55 PM 42.8 °F - 32.0 °F 66% 30.00 in 10.0 mi Calm Calm - N/A   Overcast
10:15 PM 44.6 °F 43.1 °F 32.0 °F 61% 30.00 in 10.0 mi SW 3.5 mph - N/A   Mostly Cloudy
10:35 PM 42.8 °F 41.1 °F 32.0 °F 66% 29.99 in 10.0 mi SSW 3.5 mph - N/A   Mostly Cloudy
10:55 PM 42.8 °F - 32.0 °F 66% 29.99 in 10.0 mi Calm Calm - N/A   Mostly Cloudy
11:15 PM 42.8 °F - 32.0 °F 66% 29.99 in 10.0 mi Calm Calm - N/A   Mostly Cloudy
11:35 PM 42.8 °F - 32.0 °F 66% 29.99 in 10.0 mi Calm Calm - N/A   Mostly Cloudy
11:55 PM 42.8 °F - 32.0 °F 66% 29.98 in 10.0 mi Calm Calm - N/A   Mostly Cloudy